Showing default

ASTROCAST-0402, 55109

Orbit data source: Space-Track

ASTROCAST-0402, 55109 is a payload satellite owned by Astrocast (CH) in SSO that was launched on Tue, 03 Jan 2023 UTC via an FALCON 9 launch vehicle from the Air Force Eastern Test Range (AFETR). Payload-class satellites include a variety of spacecraft equipped with specific instruments for various scientific and technological missions. These include communications satellites like Starlink; space stations such as the ISS; scientific satellites like the Hubble; Earth observation satellites from companies like Planet Labs, Umbra, and HawkEye 360; GPS; miniature CubeSats for education and research; and military/defense satellites.

Loading next visibility...
Identifier
55109, 2023-001DE
Orbit
SSO
Country
Flag of UnknownUnknown / SWTZ
Related business
Manufacturer
Astrocast
Mission
Operational Commercial Communications
Bus & Motor
CUBESAT 3U, Unknown motor
Mass
4.5 kg wet, 4.5 kg dry
Launch date (UTC)
2023-01-03 (3 years ago)
Launch vehicle
FALCON 9
Launch site
Air Force Eastern Test Range (AFETR)
Object type
Payload
Rocket body
Debris
Shape & HBR
Box, 0.1 m
Radar Cross Section
0.035 m², Medium (>0.1 m² and < 1m²)

Expand to show TLE details & history
Last TLE update: 9 hours ago

TLE from 9 hours ago
0 ASTROCAST-0402
1 55109U 23001DE  25286.96202570  .00010555  00000-0  44832-3 0  9990
2 55109  97.5691  12.3209 0006017  43.2124 316.9583 15.23239577106989
Epoch: 2025-10-13T23:05Z
TLE epoch observation values (Epoch: 2025-10-13T23:05:19.020Z)
Latitude
-0.00008°
Longitude
3.23437°
Altitude
496.144 km
Speed
7.618 km/s
True Right ascension
00h 49m 17s
True Declination
0° 00' 00"
Sunlit
Object was in full shadow at epoch
Visualization orbit readout
Latitude
Unknown
Longitude
Unknown
Altitude
Unknown
Speed
Unknown
Apparent Right ascension
Unknown
Apparent Declination
Unknown
Sunlit
N/A
Visualization observer readout
Local Sidereal Time
02:50:24
Azimuth
Unknown
Elevation
Unknown
Doppler factor
Unknown
Orbital elements
Apogee altitude
497.18 km
Perigee altitude
488.911 km
Semi-major axis
6,871.182 km
Eccentricity
0.0006
Inclination
97.5691°
RAAN
12.3209°
Arg. of periapsis
43.2124°
True anomaly
316.91121°
Mean anomaly
316.9583°
Eccentric anomaly
316.93476°
Mean motion
3.81062 °/min
Orbital period
94.47 mins
BSTAR
0.00044832
Loading maneuver chart data...
Computing Atmospheric mass density...
Loading historical data...
Loading historical data...
Loading historical data...
Loading historical data...
Loading historical data...
Loading historical data...
Loading historical data...

Documentation

Showing up to 5 results
|